DW5868 Weather Reports


time (UTC)temp
F
wind
direction
speed
knots
gust
knots
rain 1hr
in
rain 24hr
in
rain mn
in
humidity
%
barometer
mb
20260506234602 62 300 3.5 13.0 0.00 0.00 0.00 32 1015.7
20260506233058 62 114 0.9 3.5 0.00 0.00 0.00 32 1015.8
20260506231559 63 22 0.0 7.8 0.00 0.00 0.00 32 1016.0
20260506230058 61 145 0.9 8.7 0.00 0.00 0.00 32 1016.0
20260506224552 61 69 3.5 7.8 0.00 0.00 0.00 33 1016.2
20260506223055 62 284 0.9 6.1 0.00 0.00 0.00 31 1016.4
20260506221548 62 77 2.6 11.3 0.00 0.00 0.00 32 1016.7
20260506220045 63 327 0.9 4.3 0.00 0.00 0.00 32 1016.8
20260506214545 62 74 1.7 4.3 0.00 0.00 0.00 35 1017.1
20260506213102 60 78 2.6 8.7 0.00 0.01 0.00 36 1017.5
20260506211554 61 35 0.0 7.0 0.00 0.01 0.00 36 1017.6
20260506210040 60 27 0.9 7.0 0.00 0.01 0.00 37 1017.7
20260506204547 59 67 1.7 13.9 0.00 0.01 0.00 39 1018.0
20260506203045 60 49 2.6 6.1 0.00 0.05 0.00 37 1017.9
20260506201554 60 57 3.5 7.8 0.00 0.05 0.00 38 1018.2
20260506200039 59 323 0.9 7.8 0.00 0.05 0.00 39 1018.4
20260506194543 61 86 0.9 5.2 0.00 0.05 0.00 37 1018.6
20260506193038 59 126 0.9 6.1 0.00 0.13 0.00 38 1018.9
20260506191540 56 323 0.0 4.3 0.00 0.13 0.00 42 1019.1
20260506190032 55 340 0.0 7.0 0.00 0.13 0.00 43 1019.2
20260506184533 56 262 0.0 4.3 0.00 0.13 0.00 40 1019.4
20260506183041 56 24 0.9 6.1 0.00 0.15 0.00 42 1019.4
20260506181530 56 71 2.6 9.6 0.00 0.15 0.00 41 1019.5
20260506180035 55 80 2.6 13.0 0.00 0.15 0.00 41 1019.6
20260506174527 54 103 0.0 7.8 0.00 0.15 0.00 45 1019.7
20260506173027 52 15 2.6 6.1 0.00 0.15 0.00 46 1019.7
20260506171530 54 38 2.6 8.7 0.00 0.15 0.00 44 1019.8
20260506170025 54 181 2.6 6.1 0.00 0.15 0.00 44 1019.7
20260506164525 53 57 0.9 6.1 0.00 0.15 0.00 47 1019.7
20260506163024 52 86 0.9 7.0 0.00 0.15 0.00 48 1019.7
20260506161524 52 61 1.7 4.3 0.00 0.15 0.00 49 1019.6
20260506160022 53 165 0.0 4.3 0.00 0.15 0.00 48 1019.4
20260506154523 53 131 1.7 7.8 0.00 0.15 0.00 47 1019.3
20260506153021 52 77 1.7 5.2 0.00 0.15 0.00 50 1019.3
20260506151519 51 20 0.0 1.7 0.00 0.15 0.00 56 1019.3
20260506150015 50 91 0.0 0.9 0.00 0.15 0.00 56 1019.4
20260506144509 48 43 0.0 0.0 0.00 0.15 0.00 60 1019.1
20260506143012 43 284 0.0 0.0 0.00 0.15 0.00 73 1019.0
20260506141501 39 282 0.0 0.0 0.00 0.15 0.00 82 1018.7
20260506140059 0 0.0 0.0 0.00 0.15 0.00 1018.5
20260506134556 0 0.0 0.0 0.00 0.15 0.00 1018.3
20260506133052 0 0.0 0.0 0.00 0.15 0.00 1018.3
20260506131548 0 0.0 0.0 0.00 0.15 0.00 1018.2
20260506130043 0 0.0 0.0 0.00 0.15 0.00 1018.4
20260506124540 32 280 0.0 0.0 0.00 0.15 0.00 89 1018.6
20260506123036 32 280 0.0 0.0 0.00 0.15 0.00 88 1018.3
20260506121534 33 274 0.0 0.0 0.00 0.15 0.00 89 1018.2
20260506120041 33 282 0.0 0.0 0.00 0.15 0.00 89 1018.2
20260506114534 33 283 0.0 0.0 0.00 0.15 0.00 88 1018.1
20260506113034 33 283 0.0 0.0 0.00 0.15 0.00 88 1018.1
20260506111531 34 280 0.0 0.0 0.00 0.15 0.00 88 1017.9
20260506110032 33 281 0.0 0.0 0.00 0.15 0.00 88 1017.8
20260506104530 34 279 0.0 0.0 0.00 0.15 0.00 88 1017.7
20260506103030 34 280 0.0 0.0 0.00 0.15 0.00 89 1017.6
20260506101527 33 281 0.0 0.0 0.00 0.15 0.00 89 1017.6
20260506100027 34 281 0.0 0.0 0.00 0.15 0.00 88 1017.4
20260506094525 34 281 0.0 0.0 0.00 0.15 0.00 89 1017.3
20260506093023 34 280 0.0 0.0 0.00 0.15 0.00 88 1017.2
20260506091520 35 279 0.0 0.0 0.00 0.15 0.00 86 1017.2
20260506090024 36 279 0.0 0.0 0.00 0.15 0.00 83 1017.1
20260506084520 38 279 0.0 0.0 0.00 0.15 0.00 79 1017.0
20260506083017 38 279 0.0 0.0 0.00 0.15 0.00 78 1017.0
20260506081514 37 138 0.0 0.0 0.00 0.15 0.00 81 1017.1
20260506073008 36 281 0.0 0.0 0.00 0.15 0.15 82 1016.9
20260506071505 35 275 0.0 0.0 0.00 0.15 0.15 85 1016.7
20260506061504 36 277 0.0 0.0 0.00 0.15 0.15 84 1016.3
20260506050115 37 282 0.0 0.9 0.00 0.15 0.15 81 1015.5
20260506044558 37 283 0.0 0.9 0.00 0.15 0.15 83 1015.4
20260506043105 38 288 0.0 0.9 0.00 0.15 0.15 81 1015.3
20260506041557 38 230 0.0 4.3 0.00 0.15 0.15 80 1015.2
20260506040104 38 186 0.0 3.5 0.00 0.15 0.15 81 1015.0
20260506034604 38 277 0.0 0.9 0.00 0.15 0.15 80 1014.9
20260506033053 38 277 0.0 0.9 0.00 0.15 0.15 80 1014.6
20260506031553 38 277 0.0 1.7 0.00 0.15 0.15 79 1014.3
20260506030054 40 279 0.0 2.6 0.00 0.15 0.15 76 1013.9
20260506024555 41 142 0.0 1.7 0.00 0.15 0.15 73 1013.7
20260506023046 42 311 0.0 0.9 0.00 0.15 0.15 67 1013.6
20260506021558 44 78 0.0 4.3 0.00 0.15 0.15 64 1013.4
20260506020043 47 287 0.0 2.6 0.00 0.15 0.15 55 1013.2
20260506014543 47 33 0.0 4.3 0.00 0.15 0.15 54 1013.1
20260506013052 48 15 0.0 4.3 0.00 0.15 0.15 54 1013.0
20260506011545 48 265 0.9 6.1 0.00 0.15 0.15 57 1012.9
20260506010041 48 80 1.7 5.2 0.00 0.15 0.15 55 1012.8
20260506004540 48 54 1.7 4.3 0.00 0.15 0.15 56 1012.8
20260506003040 48 248 0.9 3.5 0.00 0.15 0.15 56 1012.7
20260506001539 46 202 0.0 4.3 0.00 0.15 0.15 60 1012.7
20260506000039 45 199 0.0 2.6 0.00 0.15 0.15 65 1012.7